Other Public Products
Issued by NWS Grand Forks, ND

Home | Current Version | Previous Version | Graphics & Text | Print | Product List | Glossary On
Versions: 1 2 3 4 5 6 7 8 9 10 11 12 13 14 15 16 17 18 19 20 21 22 23 24 25 26 27 28 29 30 31 32 33 34 35 36 37 38 39 40 41 42 43 44 45 46 47 48 49 50
000
FPUS83 KFGF 010831
OPUFGF
PRAIRIE TO PINES WEATHER ROUNDUP
NATIONAL WEATHER SERVICE EASTERN NORTH DAKOTA/GRAND FORKS ND
300 AM CDT FRI AUG 01 2014

 **SATELLITE DATA USED TO AUGMENT SKY COVER AT AUTOMATED STATIONS**
 *****  WEATHER ACROSS EASTERN NORTH DAKOTA  *****

CITY           SKY/WX    TMP DP  RH WIND       PRES   REMARKS
GRAND FORKS    PTCLDY    60  59  96 CALM      30.02R
GRAND FORKS AF PTCLDY    62  62 100 W5        30.03S
GRAND CITY NWS   N/A     64 N/A N/A MISG        N/A
BUXTON           N/A     65  64  97 N2          N/A
DEVILS LAKE    CLEAR     63  57  82 E5        30.05R
FARGO          CLEAR     62  59  90 CALM      30.01S
WAHPETON ARPT  SUNNY     61  54  77 CALM      30.03S
$$

 *****  WEATHER ACROSS CENTRAL AND WESTERN NORTH DAKOTA  *****

CITY           SKY/WX    TMP DP  RH WIND       PRES   REMARKS
JAMESTOWN      CLEAR     62  58  86 CALM      30.05F
BISMARCK       MOCLDY    62  57  83 NE8       30.06S
MINOT          CLEAR     60  56  86 SW5       30.06R
MINOT AFB      CLEAR     56  56  99 NW3       30.06R
GARRISON         N/A     59  55  87 CALM      30.06S
WILLISTON      CLEAR     66  58  75 CALM      30.04F
DICKINSON      CLEAR     58  54  86 E8        30.05S
HETTINGER      CLEAR     59  53  80 E8        30.07S
$$

 *****  OTHER OBSERVATIONS NORTHEAST NORTH DAKOTA  *****

CITY           SKY/WX    TMP DP  RH WIND       PRES   REMARKS
WALHALLA         N/A     55  55 100 CALM        N/A
LANGDON        FAIR      54  54 100 CALM      30.07S
CAVALIER       FAIR      59  57  94 W5        30.04S
GRAFTON        FAIR      61  61 100 NW6       30.03R
CANDO          FAIR      59  57  94 NE5       30.07S
FORT TOTTEN      N/A     64  64  98 CALM      29.95
ROLLA          FAIR      52  52 100 NW5       30.10R
RUGBY          FAIR      59  59 100 E6        30.07R FOG
 ***** THE ABOVE OBSERVATIONS ARE NON NWS ARE NOT QUALITY
        CONTROLLED AND MAY MIS-REPORT RAIN FOR SNOW...
$$

 *****  OTHER OBSERVATIONS SOUTHEAST NORTH DAKOTA *****

CITY           SKY/WX    TMP DP  RH WIND       PRES   REMARKS
COOPERSTOWN    NOT AVBL
VALLEY CITY    FAIR      57  57 100 CALM      30.05S
OAKES          NOT AVBL
GWINNER          N/A    N/A N/A N/A W8        30.06S
SHEYENNE NWR     N/A     57  56  98 CALM      29.95S
BUFFALO          N/A     61  56  85 W5          N/A
WYNDMERE       NOT AVBL
 ***** THE ABOVE OBSERVATIONS ARE NON NWS ARE NOT QUALITY
       CONTROLLED AND MAY MIS-REPORT RAIN FOR SNOW...
$$

  *****  WEATHER ACROSS NORTHERN MINNESOTA  *****

CITY           SKY/WX    TMP DP  RH WIND       PRES   REMARKS
FLAG ISLAND    CLEAR     66  63  88 CALM      30.01R
WARROAD        CLEAR     55  52  88 CALM      30.02R
ROSEAU         CLEAR     57  54  88 CALM      30.02R
HALLOCK        CLEAR     59  57  94 CALM      30.03R
THF RVR FALLS  CLEAR     61  59  94 CALM      30.03R
HALSTAD          N/A     59  57  94 E2          N/A
FOSSTON        MOCLDY    57  55  94 CALM      30.04S FOG
BAUDETTE       CLEAR     58  56  93 CALM      30.01S
WASKISH        CLEAR     55  55 100 CALM      30.01S FOG
CROOKSTON      PTCLDY    63  61  94 CALM      30.03S FOG
$$
  *****  WEATHER ACROSS CENTRAL AND WEST MINNESOTA  *****

CITY           SKY/WX    TMP DP  RH WIND       PRES   REMARKS
BEMIDJI        CLEAR     54  54  98 CALM      30.03S
PARK RAPIDS    CLEAR     58  56  93 CALM      30.03F
WADENA         CLEAR     57  55  94 CALM      30.04S FOG
DETROIT LAKES  PTCLDY    63  61  94 CALM      30.05S
MOORHEAD       CLEAR     63  63 100 CALM      30.03S
FERGUS FALLS   CLEAR     63  59  88 CALM      30.03F
ELBOW LAKE     FAIR      62  60  92 CALM      30.04S
MORRIS MN      CLEAR     59  57  94 CALM      30.04R
STAPLES        CLEAR     57  55  94 CALM      30.03S
WHEATON        CLEAR     59  57  94 CALM      30.05S
$$
  *****  WEATHER ELSEWHERE ACROSS MINNESOTA  *****

CITY           SKY/WX    TMP DP  RH WIND       PRES   REMARKS
DULUTH         PTCLDY    56  52  86 CALM      30.01F
INTRNTL FALLS  CLEAR     48  47  96 CALM      30.01S
ELY            CLEAR     48  46  93 CALM      30.02S
CLOQUET        CLEAR     55  54  94 CALM      30.01S
BRAINERD       PTCLDY    56  56 100 CALM      30.03S FOG
HIBBING        FOG       50  48  93 N3        30.03R VSB 1/2
ALEXANDRIA     CLEAR     63  61  93 W3        30.05F
SAINT CLOUD    CLEAR     63  59  87 CALM      30.01S
MINNEAPOLIS    CLEAR     68  60  75 S3        30.02R
$$

  *****  WEATHER ACROSS SOUTH DAKOTA  *****

CITY           SKY/WX    TMP DP  RH WIND       PRES   REMARKS
SIOUX FALLS    CLEAR     58  57  97 CALM      30.07S
BROOKINGS      NOT AVBL
WATERTOWN      CLEAR     58  54  86 CALM      30.07S
HURON          CLEAR     59  55  87 CALM      30.05S
SISSETON         N/A     61  58  90 W6        30.03S
ABERDEEN       CLEAR     54  53  97 CALM      30.06R
MITCHELL       CLEAR     61  59  93 E5        30.06F
PIERRE         CLEAR     63  57  81 SE6       30.04S
MOBRIDGE       PTCLDY    63  58  83 SE7       30.04R
RAPID CITY     CLEAR     58  51  78 CALM      30.11S
$$

  *****  SOME WEATHER IN NEARBY STATES *****

CITY           SKY/WX    TMP DP  RH WIND       PRES   REMARKS
GLASGOW MT     MOCLDY    71  55  56 NE10      29.99F
GREAT FALLS MT CLEAR     58  45  62 W6        30.12S
CHEYENNE WY    CLEAR     55  47  74 W5        30.31R
SCOTTSBLUFF NE CLEAR     58  50  75 CALM      30.19S
OMAHA NE       CLOUDY    68  63  84 E8        30.06F
DES MOINES IA  PTCLDY    64  60  87 CALM      30.06R
DAVENPORT IA   MOCLDY    66  61  84 S3        30.06S
CHICAGO IL     CLEAR     66  58  75 W6        30.05R
EAU CLAIRE WI  MOCLDY    62  60  93 NE5       30.01S
LA CROSSE WI   CLEAR     65  62  90 S6        30.02S
$$

  *****  SOME NATIONAL WEATHER *****

CITY           SKY/WX    TMP DP  RH WIND       PRES   REMARKS
LA GUARDIA NY  MOCLDY    73  66  78 SW8       30.16R
RALEIGH NC     CLOUDY    70  68  93 CALM      30.12F
ATLANTA GA     LGT RAIN  68  66  93 E10       30.05F
NEW ORLEANS LA CLOUDY    79  70  74 CALM      29.97F
OKLAHOMA CITY  MOCLDY    66  63  88 CALM      30.08F FOG
ALBUQUERQUE NM MOCLDY    66  55  67 N7        30.28S
SALT LAKE CITY PTCLDY    70  53  54 SE6       30.12F
LOS ANGELES CA PTCLDY    68  63  84 CALM      29.93R
BOISE ID       MOCLDY    75  48  38 E5        30.06F
SEATTLE WA     CLEAR     70  47  43 N9        30.05R
$$

*** WEATHER ACROSS MANITOBA...SASKATCHEWAN AND ONTARIO ***
                ***ONTARIO***

CITY           SKY/WX    TMP DP  RH WIND       PRES   REMARKS
GERALDTON      CLOUDY    52  52 100 NW2       29.99R FOG
THUNDER BAY    PTCLDY    52  50  93 VRB2      30.00S
SIOUX LOOKOUT  CLEAR     46  46 100 CALM      30.02S
TORONTO        PTCLDY    64  57  77 S5        30.05S
BIG TROUT LK   MOCLDY    52  48  87 E3        30.02R
PICKLE LAKE    NOT AVBL
DRYDEN         CLEAR     55  54  94 NE2       30.02  VSB 3/4
KENORA         MOCLDY    61  55  82 N5        30.04R
$$
                *** MANITOBA***

CITY           SKY/WX    TMP DP  RH WIND       PRES   REMARKS
BRANDON        CLEAR     57  55  94 N2        30.07S
DAUPHIN        CLEAR     61  57  88 W8        30.04S
ISLAND LAKE    PTCLDY    61  52  72 NE5       30.04S
PILOT MOUND      N/A     54  52  94 CALM        N/A
THE PAS        CLEAR     59  59 100 SE5       29.99S
THOMPSON       MOCLDY    59  55  88 CALM      29.99S
WINNIPEG       PTCLDY    55  54  94 W7        30.04R
LYNN LAKE      CLOUDY    61  59  94 W7        30.02F
CHURCHILL      CLEAR     54  46  76 S12       30.00S
GILLAM         CLOUDY    48  48 100 SE7       30.02F
$$
                ***SASKATCHEWAN***

CITY           SKY/WX    TMP DP  RH WIND       PRES   REMARKS
ESTEVAN        PTCLDY    59  57  94 E6        30.08S
KINDERSLEY     PTCLDY    64  61  88 E6        30.08F
LLOYDMINSTER   PTCLDY    64  61  88 N8        30.10R THUNDER
PRINCE ALBERT  MOCLDY    63  61  94 W8        30.05S
REGINA         MOCLDY    64  59  82 E3        30.09R


USA.gov is the U.S. government's official web portal to all federal, state and local government web resources and services.